This demonstration page uses our WeatherBlox Daily Observations layout. Learn more.

Left ArrowRight Arrow

44.89941, -97.11507

Hourly Observations for October 17, 2021

Temp ( °F °C ) Dew Point ( °F °C ) Humidity (%) Winds ( mph kmh ) Pressure ( in mb ) Visibility ( mi km ) Precip ( " mm )
12:53 am 00:53 Clear 41 5 39 3.9 93 93 N N/A 30.14 1021 10 16 N/A
1:53 am 01:53 Clear 38 3.3 37 2.8 97 97 N N/A 30.14 1021 10 16 N/A
2:53 am 02:53 Clear 36 2.2 34 1.1 93 93 N N/A 30.15 1021 10 16 N/A
3:53 am 03:53 Clear 38 3.3 36 2.2 93 93 N N/A 30.14 1021 10 16 N/A
4:53 am 04:53 Clear 37 2.8 35 1.7 93 93 SSE 3 6 30.13 1020 10 16 N/A
5:53 am 05:53 Clear 37 2.8 34 1.1 89 89 SE 3 6 30.14 1021 10 16 N/A
6:53 am 06:53 Clear 36 2.2 34 1.1 93 93 SE 5 7 30.14 1021 10 16 N/A
7:53 am 07:53 Sunny 36 2.2 34 1.1 93 93 SSE 7 11 30.14 1021 10 16 N/A
8:53 am 08:53 Sunny 40 4.4 38 3.3 93 93 SSE 6 9 30.13 1020 10 16 N/A
9:53 am 09:53 Sunny 47 8.3 41 5 80 80 SSE 8 13 30.14 1021 10 16 N/A
10:53 am 10:53 Sunny 54 12.2 42 5.6 64 64 S 7 11 30.13 1020 10 16 N/A
11:53 am 11:53 Sunny 61 16.1 43 6.1 52 52 S 9 15 30.10 1019 10 16 N/A
12:53 pm 12:53 Sunny 66 18.9 44 6.7 45 45 SSW 12 19 30.08 1019 10 16 N/A
1:53 pm 13:53 Sunny 69 20.6 40 4.4 35 35 SW 12 19 30.06 1018 10 16 N/A
2:53 pm 14:53 Sunny 70 21.1 41 5 35 35 S 9 15 30.03 1017 10 16 N/A
3:53 pm 15:53 Sunny 71 21.7 40 4.4 32 32 SSW 12 19 30.01 1016 10 16 N/A
4:53 pm 16:53 Sunny 69 20.6 43 6.1 39 39 SSW 7 11 29.99 1016 10 16 N/A
5:53 pm 17:53 Sunny 65 18.3 43 6.1 45 45 S 7 11 29.99 1016 10 16 N/A
6:53 pm 18:53 Clear 60 15.6 41 5 50 50 SSE 3 6 29.98 1015 10 16 N/A
7:53 pm 19:53 Clear 56 13.3 41 5 57 57 N N/A 30.00 1016 10 16 N/A
8:53 pm 20:53 Clear 53 11.7 40 4.4 61 61 SE 3 6 29.98 1015 10 16 N/A
9:53 pm 21:53 Clear 52 11.1 41 5 66 66 SSE 7 11 29.98 1015 10 16 N/A
10:53 pm 22:53 Clear 53 11.7 40 4.4 61 61 SSE 8 13 29.96 1014 10 16 N/A
11:53 pm 23:53 Clear 53 11.7 40 4.4 61 61 SSE 10 17 29.94 1014 10 16 N/A

Powered by AerisWeather